Overview Statistics Trail Chart Weather Telemetry Raw packets
 

This is the latest recevied weather packets stored in our database for station/object SV7GBF-2. If no packets are shown the sender has not sent any weather packets the latest 10 day(s).

<< 25 26 27 28 29 30 31 >>
Time Temp. Humidity Pressure Rain* Wind** Luminosity Snow
1788178445 31.11° C 15% 1016 hPa - - - -
1788177848 31.11° C 15% 1016 hPa - - - -
1788177244 30.56° C 18% 1016 hPa - - - -
1788176647 30.56° C 19% 1016 hPa - - - -
1788176044 30.56° C 22% 1016 hPa - - - -
1788174845 30° C 19% 1016 hPa - - - -
1788174244 30.56° C 21% 1016 hPa - - - -
1788173644 30° C 21% 1016 hPa - - - -
1788173043 30° C 27% 1016 hPa - - - -
1788172449 29.44° C 29% 1016 hPa - - - -
1788171843 30° C 26% 1017 hPa - - - -
1788171245 29.44° C 28% 1017 hPa - - - -
1788170644 29.44° C 26% 1016 hPa - - - -
1788170043 29.44° C 23% 1017 hPa - - - -
1788169445 29.44° C 23% 1017 hPa - - - -
1788168243 28.89° C 20% 1017 hPa - - - -
1788167643 28.33° C 20% 1017 hPa - - - -
1788167044 28.89° C 20% 1017 hPa - - - -
1788166443 28.89° C 20% 1017 hPa - - - -
1788165844 28.89° C 23% 1017 hPa - - - -
1788165243 28.33° C 26% 1017 hPa - - - -
1788164643 28.33° C 29% 1017 hPa - - - -
1788164043 27.78° C 29% 1017 hPa - - - -
1788163444 27.78° C 30% 1017 hPa - - - -
1788162843 27.22° C 31% 1017 hPa - - - -

* Rain since midnight (hover to see other rain measurements)
** Current wind speed in m/s (hover to see current wind gust speed)